Location: Unspecified
(0.0000°N, 0.0000°E)
Time: 00:30:13
(UTC+00:00)

PAYLOAD D - Pass Details

Date: 17 June 2023
Orbit: 1411 x 1417 km, 82.5° (Epoch: 01 October)

Event Time Altitude Azimuth Distance (km) Brightness Sun altitude
Rises 04:54:40 0° 35° (NE) 4,480 11.5 -15.2°
Reaches altitude 10° 04:59:33 10° 60° (ENE) 3,507 11.3 -14.0°
Maximum altitude 05:03:12 13° 87° (E) 3,243 10.8 -13.2°
Drops below altitude 10° 05:06:51 10° 113° (ESE) 3,510 10.5 -12.4°
Sets 05:11:40 0° 138° (SE) 4,489 10.7 -11.3°
